Tracking 17996 objects as of 26-February-2017
HD Live streaming from Space Station
objects crossing your sky now

OPS 9328 (IDSCS 15)

Track OPS 9328 (IDSCS 15) now!
OPS 9328 (IDSCS 15) is classified as:


NORAD ID: 2655
Int'l Code: 1967-003H
Perigee: 33,675.8 km
Apogee: 34,222.9 km
Inclination: 1.9 °
Period: 1,342.9 minutes
Semi major axis: 40320 km
RCS: 0.3981 m2 (medium)
Launch date: January 18, 1967
Source: United States (US)
Launch site: AIR FORCE EASTERN TEST RANGE (AFETR)
Uplink (MHz):
Downlink (MHz):
Beacon (MHz):
Mode:
Call sign:
Status:

Your satellite tracking list
Your tracking list is empty





NASA's NSSDC Master Catalog

Two Line Element Set (TLE):
1 02655U 67003H   17051.92131806 -.00000108  00000-0  00000+0 0  9997
2 02655   1.9065  50.7888 0067849 326.6345  35.8378  1.07229975102470
Source of the keplerian elements: AFSPC